sat.trackr.live / text

‹ back to catalog

KUIPER-00150

NORAD 65770 · 2025-217J

PAYLOAD ACTIVE UNKNOWN

§ Identity

Operator
Country
US
Launch date
2025-09-25
Launch site
AFETR
Launch vehicle
Mass (kg)
RCS (m²)

External: N2YO · Heavens-Above · Gunter

§ Orbital elements

Epoch: 2026-09-20T06:17:52.707840Z

Period
97.30 min
Inclination
51.9005°
Eccentricity
0.0000590
Mean motion
14.79938241 rev/d
Perigee alt
629.1 km
Apogee alt
629.9 km
Semi-major
7,007.7 km
B*
2.4005e-4
RAAN
270.2243°
Arg perigee
84.7621°
Mean anomaly
275.3408°
Rev number
5,358

§ Raw data

KUIPER-001501 65770U 25217J   26263.26241560  .00001609  00000+0  24005-3 0  99962 65770  51.9005 270.2243 0000590  84.7621 275.3408 14.79938241 53587

JSON: /api/v1/satellites/65770 · /tle

For live sub-satellite position, see the globe view (requires WebGL).

§ Visibility from observer

Set your observer location to see the next 7 days of passes ≥ 10°. The values pass through the URL so the page stays shareable.

No JS? Fill the form by hand. The geolocation button needs JavaScript.